Location: Bear Valley Community Church - Hurst
(32.8460°N, 97.1828°W)
Time: 07:51:55
(UTC+00:00)

Cosmos 1328 Rocket - Pass Details

Date: 03 July 2022
Orbit: 600 x 627 km, 82.5° (Epoch: 14 August)

Event Time Altitude Azimuth Distance (km) Brightness Sun altitude
Rises 10:02:54 0° 330° (NNW) 2,896 7.1 -15.1°
Reaches altitude 10° 10:06:01 10° 307° (NW) 1,980 6.0 -14.6°
Maximum altitude 10:08:24 15° 273° (W) 1,688 5.4 -14.2°
Enters shadow 10:08:31 15° 272° (W) 1,688 5.4 -14.2°
